Billings, MT

5:46 PM MST on November 27, 2014 (GMT -0700)
Downtown Billings | Change Station
CLOSE
Current Station
Personal Weather Station
Location: Billings, MT
Elevation: 3127 ft
Nearby Weather Stations

Elev 3127 ft 45.78 °N, 108.50 °W | Updated 51 minutes ago

Partly Cloudy
Partly Cloudy
47.8 °F
Feels Like 44 °F
N
8.5
Wind Variable Wind from WSW
Gusts 13.0 mph

Today
High -- | Low -- °F
--% Chance of Precip.
Yesterday
High -- | Low -- °F
Precip. -- in
7:29 AM 4:33 PM
Waxing Crescent, 34% visible
Pressure 29.88 in
Visibility 10.0 miles
Clouds Few 9000 ft
Scattered Clouds 18000 ft
Windchill 44 °F
Dew Point 33 °F
Humidity 55%
Rainfall -999.00 in
Snow Depth Not available.
UV 0 out of 12
Pollen .10 out of 12
Air Quality Not available.
Flu Activity Not available.
METAR KBIL 272353Z 25021G25KT 10SM FEW090 SCT180 08/M01 A2983 RMK AO2 SLP117 ACSL DSNT W-NW 4/001 T00831011 10111 20056 58004 $

More Conditions Fewer Conditions

Pressure 29.88 in
Visibility 10.0 miles
Clouds Few 9000 ft
Scattered Clouds 18000 ft
Windchill 44 °F
Dew Point 33 °F
Humidity 55%
Rainfall -999.00 in
Snow Depth Not available.
UV 0 out of 12
Pollen .10 out of 12
Air Quality Not available.
Flu Activity Not available.
METAR KBIL 272353Z 25021G25KT 10SM FEW090 SCT180 08/M01 A2983 RMK AO2 SLP117 ACSL DSNT W-NW 4/001 T00831011 10111 20056 58004 $

More Conditions Fewer Conditions

10-Day Weather Forecast

Almanac

Astronomy

Nov. 27, 2014 Rise Set
Actual Time
Civil Twilight
Nautical Twilight
Astronomical Twilight
Moon
Length of Visible Light
Length of Day
Tomorrow will be .
, % of the Moon is Illuminated

Today's Extremes

State Highs State Lows

Community

WunderPhotos

Upload Photos

1,774,146 photos uploaded!

WunderBlogs® & News

Nearby

Air Quality

  Air Quality AQ Index Pollutant
Not available.

Snow Depth

Station Depth Elevation

Earthquake Activity

City Distance Mag. Time & Date
Minimum magnitude displayed is 2.5.

Coastal Water Temperatures

Place Temperature

Nearby Weather Stations